There are multiple Weather-warnings   Click here for more information


Meteo18 Weather Cam more information Meteo18 Weather Cam


Thunder radar more information blitzortung!


warning for Snow/Ice more information rain snow radar


Visit our other weather sites:

Template documentation
and downloads

And another site



Weather Underground History page Text

Daily Summary for May 1, 2016 Units:  Metric    English   Both
« Previous Day
Next Day »
Daily Weekly Monthly Yearly Custom
  High: Low: Average:
Temperature: -17.8 °C -16.6 °C -13.6 °C
Dew Point: -17.8 °C -17.1 °C -16.2 °C
Humidity: Humidity % 44 % 74 %
Wind Speed: 0 km/h 0 km/h 10.9 km/h
Wind Gust: 0 km/h - -
Wind:- - ENE
Pressure: 0 hPa 34645.6 hPa -
Precipitation: 7.62 mm    
Historical Graphs
 
 
Tabular Data for May 1, 2016
Time Temperature Dew Point Pressure Wind Wind Speed Wind Gust Humidity Rainfall Rate (Hourly)
-17.8 °C -17.8 °C 0 hPa Calm     Humidity % 0 mm
00:02 -15.1 °C -15.9 °C 34645.6 hPa ENE 5.1 km/h 18.2 km/h 90 % 0 mm
00:12 -15.1 °C -15.9 °C 34645.6 hPa NE 2.6 km/h 15.6 km/h 90 % 0 mm
00:17 -15.1 °C -15.8 °C 34645.6 hPa NE 5.1 km/h 18.2 km/h 91 % 0 mm
00:22 -15.2 °C -15.9 °C 34645.6 hPa ENE 2.6 km/h 15.6 km/h 91 % 0 mm
00:32 -15.1 °C -15.8 °C 34645.6 hPa NE 7.7 km/h 12.9 km/h 92 % 0 mm
00:37 -15.1 °C -15.7 °C 34645.6 hPa NE 7.7 km/h 12.9 km/h 92 % 0 mm
00:42 -15.1 °C -15.7 °C 34645.6 hPa ESE 2.6 km/h 20.8 km/h 92 % 0 mm
00:52 -15 °C -15.7 °C 34645.6 hPa ENE 15.6 km/h 15.6 km/h 91 % 0 mm
01:02 -15.1 °C -15.9 °C 34645.6 hPa NNE 12.9 km/h 25.9 km/h 90 % 0 mm
01:12 -15.1 °C -15.9 °C 34645.6 hPa ESE 7.7 km/h 25.9 km/h 90 % 0 mm
01:17 -15.2 °C -16 °C 34659.1 hPa ENE 2.6 km/h 25.9 km/h 90 % 0 mm
01:22 -15.2 °C -16.1 °C 34659.1 hPa NE 12.9 km/h 28.5 km/h 90 % 0 mm
01:27 -15.3 °C -16.1 °C 34659.1 hPa NNE 15.6 km/h 28.5 km/h 90 % 0 mm
01:32 -15.3 °C -16.2 °C 34659.1 hPa NNE 18.2 km/h 28.5 km/h 90 % 0 mm
01:42 -15.4 °C -16.2 °C 34659.1 hPa ESE 10.3 km/h 23.3 km/h 91 % 0 mm
01:52 -15.5 °C -16.2 °C 34659.1 hPa NE 5.1 km/h 23.3 km/h 91 % 0 mm
01:57 -15.6 °C -16.3 °C 34659.1 hPa East 10.3 km/h 23.3 km/h 91 % 0 mm
02:02 -15.6 °C -16.3 °C 34659.1 hPa East 12.9 km/h 23.3 km/h 91 % 0 mm
02:07 -15.7 °C -16.4 °C 34659.1 hPa NE 10.3 km/h 23.3 km/h 91 % 0 mm
02:12 -15.7 °C -16.4 °C 34659.1 hPa NE 12.9 km/h 23.3 km/h 91 % 0 mm
02:17 -15.7 °C -16.4 °C 34659.1 hPa NE 15.6 km/h 20.8 km/h 91 % 0 mm
02:22 -15.7 °C -16.4 °C 34659.1 hPa ENE 12.9 km/h 20.8 km/h 91 % 0 mm
02:32 -15.7 °C -16.4 °C 34659.1 hPa NE 15.6 km/h 28.5 km/h 91 % 0 mm
02:37 -15.7 °C -16.4 °C 34659.1 hPa ESE 5.1 km/h 25.9 km/h 91 % 0 mm
02:42 -15.8 °C -16.5 °C 34659.1 hPa ENE 12.9 km/h 25.9 km/h 91 % 0 mm
02:47 -15.8 °C -16.5 °C 34659.1 hPa East 5.1 km/h 25.9 km/h 91 % 0 mm
02:52 -15.8 °C -16.5 °C 34659.1 hPa NE 5.1 km/h 25.9 km/h 92 % 0 mm
02:57 -15.8 °C -16.5 °C 34659.1 hPa NE 10.3 km/h 23.3 km/h 92 % 0 mm
03:02 -15.8 °C -16.5 °C 34659.1 hPa East 10.3 km/h 25.9 km/h 92 % 0 mm
03:07 -15.8 °C -16.5 °C 34659.1 hPa ENE 5.1 km/h 25.9 km/h 92 % 0 mm
03:17 -15.9 °C -16.6 °C 34669.3 hPa NE 5.1 km/h 28.5 km/h 92 % 0 mm
03:22 -15.9 °C -16.6 °C 34669.3 hPa NE 10.3 km/h 28.5 km/h 92 % 0 mm
03:32 -15.9 °C -16.6 °C 34669.3 hPa East 10.3 km/h 25.9 km/h 92 % 0 mm
03:42 -15.9 °C -16.6 °C 34669.3 hPa ENE 7.7 km/h 23.3 km/h 92 % 0 mm
03:52 -16 °C -16.6 °C 34669.3 hPa ESE 2.6 km/h 18.2 km/h 93 % 0 mm
03:57 -16 °C -16.6 °C 34669.3 hPa NE 5.1 km/h 18.2 km/h 93 % 0 mm
04:02 -16.1 °C -16.6 °C 34669.3 hPa NE 7.7 km/h 20.8 km/h 93 % 0 mm
04:07 -16.1 °C -16.6 °C 34669.3 hPa NE 7.7 km/h 20.8 km/h 93 % 0 mm
04:12 -16.1 °C -16.6 °C 34669.3 hPa NE 2.6 km/h 25.9 km/h 93 % 0 mm
04:17 -16.1 °C -16.6 °C 34669.3 hPa NE 15.6 km/h 25.9 km/h 93 % 0 mm
04:22 -16.1 °C -16.6 °C 34669.3 hPa NNE 10.3 km/h 25.9 km/h 93 % 0 mm
04:27 -16.1 °C -16.7 °C 34669.3 hPa East 2.6 km/h 20.8 km/h 93 % 0 mm
04:32 -16.2 °C -16.7 °C 34669.3 hPa ENE 5.1 km/h 23.3 km/h 93 % 0 mm
04:37 -16.2 °C -16.7 °C 34669.3 hPa NE 7.7 km/h 23.3 km/h 93 % 0 mm
04:42 -16.2 °C -16.7 °C 34669.3 hPa NE 12.9 km/h 23.3 km/h 93 % 0 mm
04:47 -16.2 °C -16.7 °C 34669.3 hPa East 5.1 km/h 23.3 km/h 93 % 0 mm
04:52 -16.2 °C -16.7 °C 34682.8 hPa NE 15.6 km/h 28.5 km/h 93 % 0 mm
04:57 -16.2 °C -16.7 °C 34682.8 hPa ENE 7.7 km/h 28.5 km/h 93 % 0 mm
05:02 -16.2 °C -16.7 °C 34682.8 hPa NNE 15.6 km/h 23.3 km/h 93 % 0 mm
05:07 -16.2 °C -16.8 °C 34682.8 hPa NE 10.3 km/h 23.3 km/h 92 % 0 mm
05:12 -16.2 °C -16.7 °C 34682.8 hPa NE 18.2 km/h 23.3 km/h 93 % 0 mm
05:22 -16.2 °C -16.8 °C 34682.8 hPa East 5.1 km/h 23.3 km/h 93 % 0 mm
05:27 -16.3 °C -16.8 °C 34682.8 hPa NE 7.7 km/h 23.3 km/h 93 % 0 mm
05:32 -16.3 °C -16.8 °C 34682.8 hPa NE 5.1 km/h 23.3 km/h 93 % 0 mm
05:37 -16.3 °C -16.9 °C 34682.8 hPa NE 7.7 km/h 23.3 km/h 93 % 0 mm
05:42 -16.3 °C -16.9 °C 34682.8 hPa NE 10.3 km/h 23.3 km/h 93 % 0 mm
05:52 -16.3 °C -16.8 °C 34682.8 hPa NE 10.3 km/h 25.9 km/h 93 % 0 mm
05:57 -16.3 °C -16.9 °C 34682.8 hPa ESE 10.3 km/h 25.9 km/h 93 % 0 mm
06:02 -16.3 °C -16.9 °C 34682.8 hPa NNE 15.6 km/h 23.3 km/h 93 % 0 mm
06:07 -16.3 °C -16.9 °C 34693 hPa NE 10.3 km/h 31.1 km/h 93 % 0 mm
06:12 -16.4 °C -16.9 °C 34693 hPa NE 12.9 km/h 31.1 km/h 93 % 0 mm
06:17 -16.4 °C -17 °C 34693 hPa ENE 10.3 km/h 31.1 km/h 93 % 0 mm
06:22 -16.4 °C -17 °C 34693 hPa East 7.7 km/h 31.1 km/h 93 % 0 mm
06:27 -16.5 °C -17.1 °C 34693 hPa East 10.3 km/h 31.1 km/h 93 % 0 mm
06:32 -16.5 °C -17.1 °C 34693 hPa ESE 5.1 km/h 20.8 km/h 93 % 0 mm
06:37 -16.5 °C -17.1 °C 34693 hPa ENE 5.1 km/h 20.8 km/h 93 % 0 mm
06:42 -16.6 °C -17.1 °C 34703.1 hPa NE 5.1 km/h 23.3 km/h 93 % 0 mm
06:47 -16.6 °C -17.1 °C 34703.1 hPa NNE 10.3 km/h 23.3 km/h 94 % 0 mm
06:52 -16.5 °C -17 °C 34703.1 hPa NE 20.8 km/h 20.8 km/h 94 % 0 mm
06:57 -16.5 °C -17 °C 34703.1 hPa East 10.3 km/h 20.8 km/h 94 % 0 mm
07:02 -16.5 °C -17 °C 34703.1 hPa NE 5.1 km/h 20.8 km/h 94 % 0 mm
07:07 -16.4 °C -17 °C 34703.1 hPa NE 10.3 km/h 23.3 km/h 93 % 0 mm
07:12 -16.4 °C -17 °C 34703.1 hPa NE 15.6 km/h 23.3 km/h 93 % 0 mm
07:17 -16.4 °C -16.9 °C 34703.1 hPa NNE 10.3 km/h 25.9 km/h 93 % 0 mm
07:22 -16.3 °C -16.9 °C 34703.1 hPa NE 12.9 km/h 38.8 km/h 93 % 0 mm
07:27 -16.3 °C -16.9 °C 34703.1 hPa NE 7.7 km/h 38.8 km/h 93 % 0 mm
07:32 -16.3 °C -16.8 °C 34716.7 hPa NNE 15.6 km/h 38.8 km/h 93 % 0 mm
07:37 -16.2 °C -16.8 °C 34716.7 hPa NE 7.7 km/h 25.9 km/h 93 % 0 mm
07:42 -16.2 °C -16.7 °C 34716.7 hPa ESE 5.1 km/h 20.8 km/h 93 % 0 mm
07:47 -16.1 °C -16.6 °C 34716.7 hPa NE 12.9 km/h 28.5 km/h 93 % 0 mm
07:52 -16 °C -16.6 °C 34716.7 hPa NE 10.3 km/h 28.5 km/h 93 % 0 mm
07:57 -15.9 °C -16.6 °C 34716.7 hPa NE 10.3 km/h 28.5 km/h 92 % 0 mm
08:02 -15.9 °C -16.6 °C 34726.8 hPa NE 15.6 km/h 28.5 km/h 92 % 0 mm
08:07 -15.8 °C -16.4 °C 34726.8 hPa NE 7.7 km/h 28.5 km/h 92 % 0 mm
08:12 -15.8 °C -16.4 °C 34726.8 hPa ENE 15.6 km/h 28.5 km/h 92 % 0 mm
08:17 -15.7 °C -16.4 °C 34726.8 hPa NNE 15.6 km/h 25.9 km/h 91 % 0 mm
08:22 -15.6 °C -16.3 °C 34726.8 hPa NE 18.2 km/h 25.9 km/h 91 % 0 mm
08:32 -15.4 °C -16.3 °C 34726.8 hPa NE 18.2 km/h 25.9 km/h 90 % 0 mm
08:37 -15.3 °C -16.2 °C 34726.8 hPa NE 23.3 km/h 28.5 km/h 90 % 0 mm
08:42 -15.2 °C -16.1 °C 34726.8 hPa NE 10.3 km/h 28.5 km/h 90 % 0 mm
08:47 -15.1 °C -16.1 °C 34726.8 hPa ENE 15.6 km/h 23.3 km/h 89 % 0 mm
08:52 -15.1 °C -16 °C 34726.8 hPa NE 31.1 km/h 31.1 km/h 89 % 0 mm
08:57 -14.9 °C -15.9 °C 34726.8 hPa ENE 23.3 km/h 33.6 km/h 89 % 0 mm
09:02 -14.9 °C -15.9 °C 34726.8 hPa NE 7.7 km/h 33.6 km/h 88 % 0 mm
09:07 -14.8 °C -15.8 °C 34726.8 hPa NE 12.9 km/h 33.6 km/h 88 % 0 mm
09:12 -14.7 °C -15.7 °C 34726.8 hPa NE 20.8 km/h 33.6 km/h 88 % 0 mm
09:17 -14.6 °C -15.6 °C 34726.8 hPa ESE 10.3 km/h 33.6 km/h 88 % 0 mm
09:22 -14.3 °C -15.6 °C 34726.8 hPa ENE 12.9 km/h 33.6 km/h 86 % 0 mm
09:27 -14.3 °C -15.6 °C 34716.7 hPa ENE 18.2 km/h 41.4 km/h 85 % 0 mm
09:32 -14.1 °C -15.5 °C 34726.8 hPa ENE 7.7 km/h 41.4 km/h 84 % 0 mm
09:37 -14 °C -15.7 °C 34716.7 hPa NE 20.8 km/h 41.4 km/h 81 % 0 mm
09:42 -13.8 °C -15.4 °C 34726.8 hPa ENE 20.8 km/h 33.6 km/h 82 % 0 mm
09:47 -13.8 °C -15.6 °C 34726.8 hPa NNE 15.6 km/h 38.8 km/h 80 % 0 mm
09:52 -13.7 °C -15.6 °C 34726.8 hPa NE 10.3 km/h 38.8 km/h 79 % 0 mm
09:57 -13.6 °C -15.6 °C 34726.8 hPa ESE 18.2 km/h 38.8 km/h 78 % 7.62 mm
10:02 -13.4 °C -15.4 °C 34726.8 hPa NE 15.6 km/h 38.8 km/h 78 % 7.62 mm
10:12 -13.2 °C -15.7 °C 34726.8 hPa NE 18.2 km/h 41.4 km/h 74 % 7.62 mm
10:17 -13.2 °C -15.7 °C 34726.8 hPa ENE 10.3 km/h 41.4 km/h 73 % 7.62 mm
10:22 -13.2 °C -16.2 °C 34726.8 hPa NE 12.9 km/h 41.4 km/h 69 % 7.62 mm
10:27 -12.9 °C -15.4 °C 34726.8 hPa ENE 15.6 km/h 46.7 km/h 74 % 7.62 mm
10:32 -12.9 °C -16.2 °C 34726.8 hPa ENE 12.9 km/h 46.7 km/h 67 % 7.62 mm
10:37 -12.9 °C -16.4 °C 34726.8 hPa ENE 10.3 km/h 46.7 km/h 65 % 7.62 mm
10:47 -12.7 °C -15.6 °C 34740.4 hPa NNE 18.2 km/h 54.4 km/h 70 % 7.62 mm
10:52 -12.7 °C -16.1 °C 34740.4 hPa NE 18.2 km/h 54.4 km/h 65 % 0 mm
10:57 -12.6 °C -16.2 °C 34726.8 hPa ENE 12.9 km/h 44.1 km/h 64 % 0 mm
11:07 -12.6 °C -16.2 °C 34740.4 hPa NNE 20.8 km/h 44.1 km/h 64 % 0 mm
11:12 -12.4 °C -16.1 °C 34740.4 hPa NNE 20.8 km/h 44.1 km/h 64 % 0 mm
11:17 -12.4 °C -16.5 °C 34740.4 hPa NE 28.5 km/h 41.4 km/h 60 % 0 mm
11:22 -12.3 °C -15.8 °C 34740.4 hPa NE 23.3 km/h 49.2 km/h 65 % 0 mm
11:27 -12.3 °C -15.9 °C 34726.8 hPa NE 20.8 km/h 49.2 km/h 64 % 0 mm
11:32 -12.2 °C -15.6 °C 34726.8 hPa ESE 18.2 km/h 49.2 km/h 66 % 0 mm
11:37 -12.2 °C -16.1 °C 34726.8 hPa NE 28.5 km/h 41.4 km/h 62 % 0 mm
11:42 -12.2 °C -15.9 °C 34726.8 hPa ENE 18.2 km/h 46.7 km/h 63 % 0 mm
11:47 -12.1 °C -15.7 °C 34726.8 hPa East 12.9 km/h 46.7 km/h 64 % 0 mm
11:52 -12 °C -15.6 °C 34726.8 hPa NE 23.3 km/h 46.7 km/h 64 % 0 mm
11:57 -11.8 °C -15.4 °C 34726.8 hPa ESE 15.6 km/h 51.8 km/h 64 % 0 mm
12:02 -11.8 °C -15.8 °C 34726.8 hPa NE 12.9 km/h 51.8 km/h 61 % 0 mm
12:12 -11.7 °C -15.6 °C 34726.8 hPa NE 20.8 km/h 49.2 km/h 62 % 0 mm
12:17 -11.7 °C -15.9 °C 34716.7 hPa NE 18.2 km/h 49.2 km/h 60 % 0 mm
12:22 -11.6 °C -15.6 °C 34726.8 hPa East 20.8 km/h 44.1 km/h 61 % 0 mm
12:27 -11.5 °C -15.7 °C 34726.8 hPa ENE 23.3 km/h 44.1 km/h 60 % 0 mm
12:32 -11.5 °C -15.9 °C 34726.8 hPa SE 28.5 km/h 44.1 km/h 58 % 0 mm
12:42 -11.4 °C -16 °C 34716.7 hPa ENE 12.9 km/h 44.1 km/h 57 % 0 mm
12:47 -11.3 °C -15.2 °C 34716.7 hPa ENE 15.6 km/h 44.1 km/h 62 % 0 mm
12:52 -11.2 °C -15.9 °C 34716.7 hPa NE 15.6 km/h 44.1 km/h 56 % 0 mm
12:57 -11.2 °C -15.6 °C 34716.7 hPa East 12.9 km/h 44.1 km/h 58 % 0 mm
13:02 -11.1 °C -15.4 °C 34716.7 hPa NE 25.9 km/h 38.8 km/h 59 % 0 mm
13:12 -11.1 °C -15.7 °C 34716.7 hPa NE 15.6 km/h 51.8 km/h 57 % 0 mm
13:17 -10.9 °C -15.8 °C 34716.7 hPa NE 28.5 km/h 51.8 km/h 55 % 0 mm
13:22 -11 °C -15.9 °C 34716.7 hPa NE 28.5 km/h 41.4 km/h 55 % 0 mm
13:27 -10.9 °C -15.8 °C 34716.7 hPa SSE 5.1 km/h 41.4 km/h 55 % 0 mm
13:32 -10.7 °C -15.4 °C 34716.7 hPa East 15.6 km/h 41.4 km/h 56 % 0 mm
13:37 -10.7 °C -15.5 °C 34716.7 hPa NNE 25.9 km/h 46.7 km/h 56 % 0 mm
13:42 -10.7 °C -16.1 °C 34716.7 hPa East 25.9 km/h 46.7 km/h 52 % 0 mm
13:57 -10.6 °C -15.7 °C 34703.1 hPa NE 28.5 km/h 44.1 km/h 54 % 0 mm
14:02 -10.7 °C -17 °C 34716.7 hPa NNE 15.6 km/h 44.1 km/h 46 % 0 mm
14:12 -10.4 °C -16.4 °C 34716.7 hPa NE 28.5 km/h 49.2 km/h 48 % 0 mm
14:17 -10.4 °C -16.1 °C 34716.7 hPa NE 18.2 km/h 49.2 km/h 50 % 0 mm
14:22 -10.4 °C -15.4 °C 34716.7 hPa ENE 10.3 km/h 49.2 km/h 54 % 0 mm
14:27 -10.3 °C -16 °C 34716.7 hPa NE 23.3 km/h 41.4 km/h 50 % 0 mm
14:32 -10.3 °C -15.8 °C 34716.7 hPa SE 10.3 km/h 38.8 km/h 51 % 0 mm
14:42 -10.3 °C -16 °C 34716.7 hPa NE 31.1 km/h 49.2 km/h 50 % 0 mm
14:47 -10.3 °C -16.8 °C 34716.7 hPa ENE 18.2 km/h 49.2 km/h 45 % 0 mm
14:52 -10.3 °C -15.9 °C 34716.7 hPa NE 18.2 km/h 51.8 km/h 50 % 0 mm
14:57 -10.3 °C -16.6 °C 34716.7 hPa ESE 23.3 km/h 51.8 km/h 46 % 0 mm
15:02 -10.2 °C -16.6 °C 34716.7 hPa East 10.3 km/h 49.2 km/h 46 % 0 mm
15:07 -10.2 °C -16.1 °C 34716.7 hPa NNE 10.3 km/h 38.8 km/h 49 % 0 mm
15:12 -10.1 °C -16.1 °C 34716.7 hPa NNE 41.4 km/h 41.4 km/h 48 % 0 mm
15:17 -10.1 °C -16.4 °C 34716.7 hPa ENE 20.8 km/h 41.4 km/h 46 % 0 mm
15:22 -10.1 °C -16.8 °C 34716.7 hPa ENE 23.3 km/h 46.7 km/h 44 % 0 mm
15:27 -9.9 °C -15.9 °C 34716.7 hPa NE 31.1 km/h 46.7 km/h 48 % 0 mm
15:32 -9.9 °C -16.1 °C 34726.8 hPa ENE 20.8 km/h 51.8 km/h 47 % 0 mm
15:37 -9.8 °C -16 °C 34716.7 hPa NE 41.4 km/h 51.8 km/h 47 % 0 mm
15:42 -9.9 °C -16.3 °C 34716.7 hPa WNW 7.7 km/h 51.8 km/h 46 % 0 mm
15:47 -10.2 °C -16.7 °C 34716.7 hPa NE 18.2 km/h 46.7 km/h 45 % 0 mm
15:52 -10.4 °C -16.4 °C 34716.7 hPa East 10.3 km/h 46.7 km/h 48 % 0 mm
15:57 -10.7 °C -16.8 °C 34716.7 hPa NE 12.9 km/h 36.2 km/h 47 % 0 mm
16:02 -10.6 °C -16.7 °C 34716.7 hPa NNE 31.1 km/h 36.2 km/h 47 % 0 mm
16:12 -10.5 °C -16.5 °C 34716.7 hPa ENE 15.6 km/h 33.6 km/h 48 % 0 mm
16:17 -10.6 °C -16.6 °C 34716.7 hPa NE 12.9 km/h 33.6 km/h 48 % 0 mm
16:22 -10.7 °C -16.3 °C 34716.7 hPa ENE 12.9 km/h 46.7 km/h 50 % 0 mm
16:27 -10.8 °C -16.1 °C 34716.7 hPa NE 5.1 km/h 46.7 km/h 52 % 0 mm
16:32 -10.7 °C -15.9 °C 34716.7 hPa NE 15.6 km/h 28.5 km/h 53 % 0 mm
16:37 -10.8 °C -16.3 °C 34716.7 hPa ENE 10.3 km/h 28.5 km/h 51 % 0 mm
16:42 -10.8 °C -16 °C 34716.7 hPa NE 10.3 km/h 28.5 km/h 53 % 0 mm
16:47 -10.9 °C -16.2 °C 34716.7 hPa ENE 7.7 km/h 25.9 km/h 52 % 0 mm
16:52 -10.9 °C -16.4 °C 34716.7 hPa NNW 7.7 km/h 25.9 km/h 51 % 0 mm
16:57 -10.9 °C -16.1 °C 34716.7 hPa East 2.6 km/h 25.9 km/h 53 % 0 mm
17:02 -11 °C -16.3 °C 34716.7 hPa ENE 7.7 km/h 23.3 km/h 52 % 0 mm
17:12 -11.1 °C -16.2 °C 34716.7 hPa NE 20.8 km/h 28.5 km/h 53 % 0 mm
17:17 -11 °C -15.9 °C 34716.7 hPa NE 18.2 km/h 28.5 km/h 55 % 0 mm
17:22 -11 °C -16.2 °C 34716.7 hPa North 7.7 km/h 23.3 km/h 53 % 0 mm
17:27 -11 °C -15.9 °C 34716.7 hPa NE 5.1 km/h 23.3 km/h 55 % 0 mm
17:32 -10.9 °C -15.9 °C 34716.7 hPa East 5.1 km/h 23.3 km/h 54 % 0 mm
17:37 -10.6 °C -15.5 °C 34716.7 hPa NE 10.3 km/h 15.6 km/h 55 % 0 mm
17:42 -10.3 °C -15.5 °C 34716.7 hPa SSE 2.6 km/h 20.8 km/h 53 % 0 mm
17:52 -10.1 °C -15.7 °C 34716.7 hPa North 12.9 km/h 25.9 km/h 51 % 0 mm
17:57 -10.1 °C -15.9 °C 34716.7 hPa ENE 12.9 km/h 25.9 km/h 49 % 0 mm
18:02 -10.2 °C -16.2 °C 34716.7 hPa NNE 12.9 km/h 25.9 km/h 48 % 0 mm
18:12 -10.4 °C -15.8 °C 34716.7 hPa NE 7.7 km/h 28.5 km/h 52 % 0 mm
18:17 -10.5 °C -16.2 °C 34726.8 hPa NE 7.7 km/h 28.5 km/h 50 % 0 mm
18:22 -10.5 °C -15.8 °C 34726.8 hPa NE 10.3 km/h 28.5 km/h 52 % 0 mm
18:27 -10.4 °C -15.9 °C 34726.8 hPa NE 15.6 km/h 25.9 km/h 51 % 0 mm
18:32 -10.3 °C -15.8 °C 34726.8 hPa ENE 15.6 km/h 25.9 km/h 51 % 0 mm
18:37 -10.4 °C -15.9 °C 34726.8 hPa SE 5.1 km/h 25.9 km/h 51 % 0 mm
18:42 -10.5 °C -16.2 °C 34726.8 hPa NNE 12.9 km/h 28.5 km/h 50 % 0 mm
18:47 -10.6 °C -15.8 °C 34726.8 hPa NNE 18.2 km/h 28.5 km/h 53 % 0 mm
18:52 -10.7 °C -16.3 °C 34726.8 hPa NE 12.9 km/h 28.5 km/h 50 % 0 mm
18:57 -10.7 °C -15.9 °C 34740.4 hPa ESE 7.7 km/h 31.1 km/h 53 % 0 mm
19:02 -10.8 °C -15.8 °C 34726.8 hPa NE 5.1 km/h 31.1 km/h 54 % 0 mm
19:07 -10.9 °C -15.8 °C 34726.8 hPa SE 2.6 km/h 23.3 km/h 55 % 0 mm
19:12 -10.9 °C -15.9 °C 34726.8 hPa NE 10.3 km/h 23.3 km/h 54 % 0 mm
19:17 -11 °C -15.6 °C 34740.4 hPa NNE 5.1 km/h 20.8 km/h 57 % 0 mm
19:22 -11.1 °C -15.7 °C 34740.4 hPa NNE 7.7 km/h 20.8 km/h 57 % 0 mm
19:32 -11.2 °C -15.9 °C 34740.4 hPa NNE 5.1 km/h 18.2 km/h 56 % 0 mm
19:42 -11.3 °C -15.8 °C 34740.4 hPa NE 7.7 km/h 25.9 km/h 58 % 0 mm
19:52 -11.5 °C -15.9 °C 34740.4 hPa NNE 2.6 km/h 12.9 km/h 58 % 0 mm
19:57 -11.6 °C -15.5 °C 34740.4 hPa NNE 2.6 km/h 12.9 km/h 62 % 0 mm
20:02 -11.8 °C -15.6 °C 34740.4 hPa Calm   10.3 km/h 63 % 0 mm
20:07 -11.9 °C -15.4 °C 34740.4 hPa Calm   10.3 km/h 65 % 0 mm
20:12 -11.9 °C -15.7 °C 34750.5 hPa SE 2.6 km/h 12.9 km/h 63 % 0 mm
20:17 -11.9 °C -15.8 °C 34740.4 hPa NNE 5.1 km/h 12.9 km/h 62 % 0 mm
20:22 -12 °C -15.9 °C 34750.5 hPa NE 5.1 km/h 12.9 km/h 62 % 0 mm
20:27 -12.1 °C -15.8 °C 34750.5 hPa NE 2.6 km/h 15.6 km/h 63 % 0 mm
20:32 -12.2 °C -15.8 °C 34750.5 hPa NE 2.6 km/h 15.6 km/h 64 % 0 mm
20:37 -12.4 °C -15.9 °C 34750.5 hPa Calm   15.6 km/h 65 % 0 mm
20:42 -12.7 °C -15.8 °C 34750.5 hPa Calm   12.9 km/h 68 % 0 mm
20:47 -12.8 °C -15.7 °C 34760.7 hPa Calm   2.6 km/h 70 % 0 mm
20:52 -13 °C -15.7 °C 34760.7 hPa Calm     72 % 0 mm
20:57 -13.2 °C -15.8 °C 34760.7 hPa Calm     73 % 0 mm
21:02 -13.4 °C -15.7 °C 34760.7 hPa Calm     75 % 0 mm
21:07 -13.6 °C -15.8 °C 34760.7 hPa Calm     76 % 0 mm
21:12 -13.7 °C -15.7 °C 34760.7 hPa Calm     78 % 0 mm
21:17 -13.9 °C -15.8 °C 34760.7 hPa Calm     79 % 0 mm
21:22 -14.1 °C -16 °C 34760.7 hPa Calm     79 % 0 mm
21:27 -14.3 °C -16.2 °C 34760.7 hPa Calm     79 % 0 mm
21:32 -14.4 °C -16.1 °C 34774.2 hPa Calm     81 % 0 mm
21:42 -14.7 °C -16.1 °C 34774.2 hPa Calm     84 % 0 mm
21:47 -14.7 °C -16.1 °C 34774.2 hPa Calm     84 % 0 mm
21:52 -14.7 °C -16.2 °C 34774.2 hPa Calm     83 % 0 mm
21:57 -14.8 °C -16.3 °C 34774.2 hPa Calm     83 % 0 mm
22:02 -14.8 °C -16.1 °C 34774.2 hPa Calm     85 % 0 mm
22:17 -15.1 °C -16.3 °C 34774.2 hPa Calm     86 % 0 mm
22:22 -15.2 °C -16.3 °C 34774.2 hPa Calm     86 % 0 mm
22:27 -15.2 °C -16.3 °C 34774.2 hPa Calm     86 % 0 mm
22:32 -15.2 °C -16.3 °C 34774.2 hPa Calm     86 % 0 mm
22:37 -15.2 °C -16.3 °C 34784.4 hPa Calm     86 % 0 mm
22:42 -15.2 °C -16.4 °C 34774.2 hPa Calm     86 % 0 mm
22:47 -15.3 °C -16.3 °C 34774.2 hPa Calm     88 % 0 mm
22:52 -15.3 °C -16.3 °C 34774.2 hPa Calm     88 % 0 mm
22:57 -15.4 °C -16.4 °C 34774.2 hPa Calm     88 % 0 mm
23:02 -15.4 °C -16.5 °C 34784.4 hPa Calm     87 % 0 mm
23:12 -15.6 °C -16.6 °C 34784.4 hPa Calm     88 % 0 mm
23:17 -15.7 °C -16.6 °C 34774.2 hPa Calm     89 % 0 mm
23:22 -15.7 °C -16.5 °C 34774.2 hPa Calm     90 % 0 mm
23:27 -15.5 °C -16.4 °C 34774.2 hPa Calm     89 % 0 mm
23:32 -15.4 °C -16.4 °C 34774.2 hPa Calm     88 % 0 mm
23:42 -15.2 °C -16.4 °C 34774.2 hPa Calm     86 % 0 mm
23:47 -15.2 °C -16.5 °C 34774.2 hPa Calm     85 % 0 mm
23:52 -15.2 °C -16.4 °C 34774.2 hPa Calm     85 % 0 mm
23:57 -15.1 °C -16.5 °C 34774.2 hPa Calm     84 % 0 mm
Meteo18
Compliments of Weather Underground - 4 mb

Script developed by  Jim McMurry - jmcmurry@mwt.net Adapted for the template by  Wim van der Kuil - Leuven-Template.eu

You find our weather info also at:

European Weather Network

Weather Underground

Equipment we use:

Weather-station
Davis Vue

Weather-program
Meteobridge

Weather-server
Raspberry PI 2 B+

Provider
1 and 1

Davis Vue

Meteobridge

Raspberry PI 2 B+

1 and 1